Time,TemperatureF,DewpointF,PressureIn,WindDirection,WindDirectionDegrees,WindSpeedMPH,WindSpeedGustMPH,Humidity,HourlyPrecipIn,Conditions,Clouds,dailyrainin,SoftwareType,DateUTC
2013-03-15 00:04:00,22.9,16.4,29.77,SW,225,0.7,0.7,76,0.00,,,0.00,WUHU216HW,2013-03-14 23:04:00,
2013-03-15 00:09:00,22.9,16.4,29.77,SW,225,0.7,0.7,76,0.00,,,0.00,WUHU216HW,2013-03-14 23:09:00,
2013-03-15 00:14:00,22.9,16.4,29.77,WSW,248,0.4,0.7,76,0.00,,,0.00,WUHU216HW,2013-03-14 23:14:00,
2013-03-15 00:19:00,22.9,16.8,29.77,WSW,248,0.4,0.7,77,0.00,,,0.00,WUHU216HW,2013-03-14 23:19:00,
2013-03-15 00:24:00,22.9,16.8,29.77,WSW,248,0.4,0.4,77,0.00,,,0.00,WUHU216HW,2013-03-14 23:24:00,
2013-03-15 00:29:00,22.9,16.8,29.77,SSW,203,0.4,0.7,77,0.00,,,0.00,WUHU216HW,2013-03-14 23:29:00,
2013-03-15 00:34:00,22.9,16.8,29.78,SW,225,0.7,1.1,77,0.00,,,0.00,WUHU216HW,2013-03-14 23:34:00,
2013-03-15 00:39:00,22.9,16.8,29.78,SW,225,0.0,1.1,77,0.00,,,0.00,WUHU216HW,2013-03-14 23:39:00,
2013-03-15 00:44:00,22.7,16.6,29.78,WSW,248,0.4,0.7,77,0.00,,,0.00,WUHU216HW,2013-03-14 23:44:00,
2013-03-15 00:49:00,22.7,16.6,29.78,West,270,1.6,1.8,77,0.00,,,0.00,WUHU216HW,2013-03-14 23:49:00,
2013-03-15 00:54:00,22.9,16.8,29.78,SW,225,0.4,1.8,77,0.00,,,0.00,WUHU216HW,2013-03-14 23:54:00,
2013-03-15 00:59:00,23.0,16.9,29.78,SW,225,0.7,1.8,77,0.00,,,0.00,WUHU216HW,2013-03-14 23:59:00,
2013-03-15 01:04:00,23.0,17.2,29.78,West,270,1.1,1.8,78,0.00,,,0.00,WUHU216HW,2013-03-15 00:04:00,
2013-03-15 01:09:00,23.0,17.2,29.78,West,270,0.2,1.1,78,0.00,,,0.00,WUHU216HW,2013-03-15 00:09:00,
2013-03-15 01:14:00,23.0,16.9,29.78,West,270,0.0,1.1,77,0.00,,,0.00,WUHU216HW,2013-03-15 00:14:00,
2013-03-15 01:19:00,23.0,16.9,29.78,SW,225,0.4,1.1,77,0.00,,,0.00,WUHU216HW,2013-03-15 00:19:00,
2013-03-15 01:24:00,22.9,16.8,29.78,SSW,203,0.4,0.7,77,0.00,,,0.00,WUHU216HW,2013-03-15 00:24:00,
2013-03-15 01:29:00,22.9,16.8,29.78,SSW,203,0.9,0.9,77,0.00,,,0.00,WUHU216HW,2013-03-15 00:29:00,
2013-03-15 01:34:00,22.9,16.8,29.78,SSW,203,0.0,0.9,77,0.00,,,0.00,WUHU216HW,2013-03-15 00:34:00,
2013-03-15 01:39:00,22.7,16.6,29.78,SSW,203,0.0,0.9,77,0.00,,,0.00,WUHU216HW,2013-03-15 00:39:00,
2013-03-15 01:44:00,22.7,16.8,29.78,SSW,203,0.4,0.4,78,0.00,,,0.00,WUHU216HW,2013-03-15 00:44:00,
2013-03-15 01:49:00,22.7,16.8,29.78,SSW,203,0.0,0.4,78,0.00,,,0.00,WUHU216HW,2013-03-15 00:49:00,
2013-03-15 01:54:00,22.7,16.8,29.78,SSW,203,0.0,0.4,78,0.00,,,0.00,WUHU216HW,2013-03-15 00:54:00,
2013-03-15 01:59:00,22.7,16.8,29.78,SW,225,0.0,0.2,78,0.00,,,0.00,WUHU216HW,2013-03-15 00:59:00,
2013-03-15 02:04:00,22.7,17.2,29.78,SW,225,0.0,0.2,79,0.00,,,0.00,WUHU216HW,2013-03-15 01:04:00,
2013-03-15 02:09:00,22.9,17.4,29.78,NNW,338,0.0,1.1,79,0.00,,,0.00,WUHU216HW,2013-03-15 01:09:00,
2013-03-15 02:14:00,22.9,17.4,29.78,WSW,248,0.7,1.1,79,0.00,,,0.00,WUHU216HW,2013-03-15 01:14:00,
2013-03-15 02:19:00,23.0,17.8,29.79,North,0,0.9,0.9,80,0.00,,,0.00,WUHU216HW,2013-03-15 01:19:00,
2013-03-15 02:25:00,23.2,18.0,29.78,WNW,293,1.1,1.1,80,0.00,,,0.00,WUHU216HW,2013-03-15 01:25:00,
2013-03-15 02:30:00,23.2,18.0,29.79,NW,315,0.7,1.1,80,0.00,,,0.00,WUHU216HW,2013-03-15 01:30:00,
2013-03-15 02:35:00,23.2,18.0,29.78,NNW,338,0.4,1.1,80,0.00,,,0.00,WUHU216HW,2013-03-15 01:35:00,
2013-03-15 02:40:00,23.2,18.0,29.78,West,270,0.0,1.3,80,0.00,,,0.00,WUHU216HW,2013-03-15 01:40:00,
2013-03-15 02:45:00,23.4,18.2,29.78,West,270,0.4,1.3,80,0.00,,,0.00,WUHU216HW,2013-03-15 01:45:00,
2013-03-15 02:50:00,23.6,18.4,29.78,WNW,293,1.1,1.3,80,0.00,,,0.00,WUHU216HW,2013-03-15 01:50:00,
2013-03-15 02:55:00,23.6,18.6,29.78,West,270,1.1,2.5,81,0.00,,,0.00,WUHU216HW,2013-03-15 01:55:00,
2013-03-15 03:00:00,23.8,18.5,29.78,North,0,0.0,2.5,80,0.00,,,0.00,WUHU216HW,2013-03-15 02:00:00,
2013-03-15 03:05:00,23.8,18.5,29.78,North,0,0.4,1.8,80,0.00,,,0.00,WUHU216HW,2013-03-15 02:05:00,
2013-03-15 03:10:00,23.8,18.5,29.78,WNW,293,0.0,1.8,80,0.00,,,0.00,WUHU216HW,2013-03-15 02:10:00,
2013-03-15 03:15:00,23.9,18.7,29.78,West,270,0.4,0.4,80,0.00,,,0.00,WUHU216HW,2013-03-15 02:15:00,
2013-03-15 03:20:00,24.1,18.9,29.78,WNW,293,0.7,1.1,80,0.00,,,0.00,WUHU216HW,2013-03-15 02:20:00,
2013-03-15 03:25:00,24.1,18.9,29.78,West,270,1.1,1.6,80,0.00,,,0.00,WUHU216HW,2013-03-15 02:25:00,
2013-03-15 03:30:00,24.1,18.9,29.79,WNW,293,1.1,1.6,80,0.00,,,0.00,WUHU216HW,2013-03-15 02:30:00,
2013-03-15 03:35:00,24.1,18.9,29.79,WNW,293,0.0,1.3,80,0.00,,,0.00,WUHU216HW,2013-03-15 02:35:00,
2013-03-15 03:40:00,24.1,18.9,29.79,NNW,338,0.4,1.1,80,0.00,,,0.00,WUHU216HW,2013-03-15 02:40:00,
2013-03-15 03:45:00,23.9,18.7,29.79,NNW,338,0.0,0.7,80,0.00,,,0.00,WUHU216HW,2013-03-15 02:45:00,
2013-03-15 03:50:00,24.1,18.9,29.79,NW,315,0.4,1.1,80,0.00,,,0.00,WUHU216HW,2013-03-15 02:50:00,
2013-03-15 03:55:00,24.1,18.9,29.79,NW,315,1.1,1.1,80,0.00,,,0.00,WUHU216HW,2013-03-15 02:55:00,
2013-03-15 04:00:00,24.1,18.9,29.79,NNW,338,1.1,1.1,80,0.00,,,0.00,WUHU216HW,2013-03-15 03:00:00,
2013-03-15 04:05:00,24.1,18.9,29.79,NW,315,0.4,1.1,80,0.00,,,0.00,WUHU216HW,2013-03-15 03:05:00,
2013-03-15 04:10:00,24.1,18.9,29.79,NNW,338,0.2,1.1,80,0.00,,,0.00,WUHU216HW,2013-03-15 03:10:00,
2013-03-15 04:15:00,23.9,18.7,29.79,North,0,0.7,0.9,80,0.00,,,0.00,WUHU216HW,2013-03-15 03:15:00,
2013-03-15 04:20:00,23.8,18.5,29.79,NNW,338,0.9,0.9,80,0.00,,,0.00,WUHU216HW,2013-03-15 03:20:00,
2013-03-15 04:25:00,23.8,18.5,29.79,NNW,338,0.0,0.9,80,0.00,,,0.00,WUHU216HW,2013-03-15 03:25:00,
2013-03-15 04:30:00,23.6,18.4,29.80,NW,315,0.0,0.9,80,0.00,,,0.00,WUHU216HW,2013-03-15 03:30:00,
2013-03-15 04:35:00,23.4,18.2,29.80,NNW,338,0.0,0.4,80,0.00,,,0.00,WUHU216HW,2013-03-15 03:35:00,
2013-03-15 04:40:00,23.4,18.5,29.80,NNW,338,0.0,0.4,81,0.00,,,0.00,WUHU216HW,2013-03-15 03:40:00,
2013-03-15 04:45:00,23.2,18.3,29.80,NNW,338,0.0,0.4,81,0.00,,,0.00,WUHU216HW,2013-03-15 03:45:00,
2013-03-15 04:50:00,23.0,18.1,29.80,NNW,338,0.0,0.2,81,0.00,,,0.00,WUHU216HW,2013-03-15 03:50:00,
2013-03-15 04:55:00,22.9,17.9,29.80,North,0,0.0,0.0,81,0.00,,,0.00,WUHU216HW,2013-03-15 03:55:00,
2013-03-15 05:00:00,22.7,17.7,29.80,NW,315,0.4,1.8,81,0.00,,,0.00,WUHU216HW,2013-03-15 04:00:00,
2013-03-15 05:05:00,22.7,18.0,29.80,ENE,68,0.4,1.8,82,0.00,,,0.00,WUHU216HW,2013-03-15 04:05:00,
2013-03-15 05:10:00,22.5,17.6,29.80,ESE,113,0.0,0.4,81,0.00,,,0.00,WUHU216HW,2013-03-15 04:10:00,
2013-03-15 05:15:00,22.3,17.6,29.81,SE,135,0.0,0.4,82,0.00,,,0.00,WUHU216HW,2013-03-15 04:15:00,
2013-03-15 05:20:00,22.3,17.6,29.80,SE,135,0.4,0.4,82,0.00,,,0.00,WUHU216HW,2013-03-15 04:20:00,
2013-03-15 05:25:00,22.1,17.5,29.81,ESE,113,0.2,0.4,82,0.00,,,0.00,WUHU216HW,2013-03-15 04:25:00,
2013-03-15 05:30:00,22.0,17.3,29.81,ESE,113,0.0,0.4,82,0.00,,,0.00,WUHU216HW,2013-03-15 04:30:00,
2013-03-15 05:35:00,22.0,17.6,29.80,NW,315,0.2,0.4,83,0.00,,,0.00,WUHU216HW,2013-03-15 04:35:00,
2013-03-15 05:40:00,22.0,17.6,29.81,North,0,1.6,1.8,83,0.00,,,0.00,WUHU216HW,2013-03-15 04:40:00,
2013-03-15 05:45:00,22.1,17.7,29.81,NNW,338,0.0,1.8,83,0.00,,,0.00,WUHU216HW,2013-03-15 04:45:00,
2013-03-15 05:50:00,22.3,17.9,29.81,NE,45,0.0,1.6,83,0.00,,,0.00,WUHU216HW,2013-03-15 04:50:00,
2013-03-15 05:55:00,22.3,17.6,29.81,North,0,0.2,0.4,82,0.00,,,0.00,WUHU216HW,2013-03-15 04:55:00,
2013-03-15 06:00:00,22.1,17.5,29.81,North,0,0.0,0.4,82,0.00,,,0.00,WUHU216HW,2013-03-15 05:00:00,
2013-03-15 06:05:00,22.0,17.3,29.81,SE,135,0.4,0.4,82,0.00,,,0.00,WUHU216HW,2013-03-15 05:05:00,
2013-03-15 06:10:00,21.6,16.9,29.81,ESE,113,0.0,0.4,82,0.00,,,0.00,WUHU216HW,2013-03-15 05:10:00,
2013-03-15 06:15:00,21.4,16.7,29.81,ESE,113,0.0,0.4,82,0.00,,,0.00,WUHU216HW,2013-03-15 05:15:00,
2013-03-15 06:20:00,21.2,16.8,29.81,SE,135,0.4,0.4,83,0.00,,,0.00,WUHU216HW,2013-03-15 05:20:00,
2013-03-15 06:25:00,21.2,16.8,29.82,SE,135,0.4,0.4,83,0.00,,,0.00,WUHU216HW,2013-03-15 05:25:00,
2013-03-15 06:30:00,21.2,16.8,29.82,SE,135,0.4,0.4,83,0.00,,,0.00,WUHU216HW,2013-03-15 05:30:00,
2013-03-15 06:35:00,21.2,16.8,29.82,SE,135,0.4,0.7,83,0.00,,,0.00,WUHU216HW,2013-03-15 05:35:00,
2013-03-15 06:40:00,21.2,16.8,29.82,SE,135,0.0,0.7,83,0.00,,,0.00,WUHU216HW,2013-03-15 05:40:00,
2013-03-15 06:45:00,21.2,17.1,29.83,SE,135,0.0,0.9,84,0.00,,,0.00,WUHU216HW,2013-03-15 05:45:00,
2013-03-15 06:50:00,21.4,17.3,29.83,SE,135,0.4,0.9,84,0.00,,,0.00,WUHU216HW,2013-03-15 05:50:00,
2013-03-15 06:55:00,21.6,17.5,29.83,ENE,68,0.0,0.4,84,0.00,,,0.00,WUHU216HW,2013-03-15 05:55:00,
2013-03-15 07:00:00,21.6,17.5,29.83,South,180,0.2,0.4,84,0.00,,,0.00,WUHU216HW,2013-03-15 06:00:00,
2013-03-15 07:05:00,21.8,17.6,29.83,NNW,338,0.0,1.1,84,0.00,,,0.00,WUHU216HW,2013-03-15 06:05:00,
2013-03-15 07:10:00,22.0,17.8,29.83,NNW,338,0.0,1.1,84,0.00,,,0.00,WUHU216HW,2013-03-15 06:10:00,
2013-03-15 07:15:00,22.0,17.6,29.84,ESE,113,0.7,0.7,83,0.00,,,0.00,WUHU216HW,2013-03-15 06:15:00,
2013-03-15 07:20:00,22.0,17.6,29.84,ESE,113,0.0,1.1,83,0.00,,,0.00,WUHU216HW,2013-03-15 06:20:00,
2013-03-15 07:25:00,22.1,17.7,29.84,ESE,113,0.4,1.1,83,0.00,,,0.00,WUHU216HW,2013-03-15 06:25:00,
2013-03-15 07:30:00,22.1,17.7,29.84,ESE,113,0.0,0.7,83,0.00,,,0.00,WUHU216HW,2013-03-15 06:30:00,
2013-03-15 07:35:00,22.5,18.1,29.84,North,0,0.2,0.9,83,0.00,,,0.00,WUHU216HW,2013-03-15 06:35:00,
2013-03-15 07:40:00,22.9,18.5,29.84,NNW,338,0.0,0.9,83,0.00,,,0.00,WUHU216HW,2013-03-15 06:40:00,
2013-03-15 07:45:00,23.4,19.0,29.85,North,0,0.9,0.9,83,0.00,,,0.00,WUHU216HW,2013-03-15 06:45:00,
2013-03-15 07:50:00,23.8,19.4,29.85,WNW,293,0.9,1.8,83,0.00,,,0.00,WUHU216HW,2013-03-15 06:50:00,
2013-03-15 07:55:00,24.1,19.7,29.85,NNW,338,0.0,1.8,83,0.00,,,0.00,WUHU216HW,2013-03-15 06:55:00,
2013-03-15 08:00:00,24.7,20.3,29.85,WSW,248,0.4,0.9,83,0.00,,,0.00,WUHU216HW,2013-03-15 07:00:00,
2013-03-15 08:05:00,25.2,20.5,29.85,SSE,158,0.4,1.8,82,0.00,,,0.00,WUHU216HW,2013-03-15 07:05:00,
2013-03-15 08:10:00,25.6,20.8,29.86,SSW,203,0.2,1.8,82,0.00,,,0.00,WUHU216HW,2013-03-15 07:10:00,
2013-03-15 08:15:00,25.7,20.4,29.86,NNW,338,1.1,2.5,80,0.00,,,0.00,WUHU216HW,2013-03-15 07:15:00,
2013-03-15 08:20:00,25.6,20.3,29.86,NW,315,1.8,3.6,80,0.00,,,0.00,WUHU216HW,2013-03-15 07:20:00,
2013-03-15 08:25:00,25.9,20.3,29.86,North,0,2.5,4.0,79,0.00,,,0.00,WUHU216HW,2013-03-15 07:25:00,
2013-03-15 08:30:00,25.9,20.3,29.86,West,270,2.2,4.0,79,0.00,,,0.00,WUHU216HW,2013-03-15 07:30:00,
2013-03-15 08:35:00,25.7,19.8,29.86,North,0,1.8,3.4,78,0.00,,,0.00,WUHU216HW,2013-03-15 07:35:00,
2013-03-15 08:40:00,25.7,20.1,29.86,NNW,338,2.5,5.6,79,0.00,,,0.00,WUHU216HW,2013-03-15 07:40:00,
2013-03-15 08:45:00,25.7,20.1,29.86,NW,315,0.4,5.6,79,0.00,,,0.00,WUHU216HW,2013-03-15 07:45:00,
2013-03-15 08:50:00,25.7,19.8,29.87,North,0,1.6,5.1,78,0.00,,,0.00,WUHU216HW,2013-03-15 07:50:00,
2013-03-15 08:55:00,26.1,20.4,29.86,NNW,338,3.8,5.1,79,0.00,,,0.00,WUHU216HW,2013-03-15 07:55:00,
2013-03-15 09:00:00,26.5,20.8,29.87,NNW,338,4.7,4.7,79,0.00,,,0.00,WUHU216HW,2013-03-15 08:00:00,
2013-03-15 09:05:00,27.0,21.3,29.87,NE,45,0.9,4.7,79,0.00,,,0.00,WUHU216HW,2013-03-15 08:05:00,
2013-03-15 09:10:00,27.5,21.3,29.87,North,0,4.7,4.7,77,0.00,,,0.00,WUHU216HW,2013-03-15 08:10:00,
2013-03-15 09:15:00,27.7,20.8,29.87,NNW,338,3.4,4.7,75,0.00,,,0.00,WUHU216HW,2013-03-15 08:15:00,
2013-03-15 09:20:00,27.7,21.1,29.88,NNW,338,3.4,5.4,76,0.00,,,0.00,WUHU216HW,2013-03-15 08:20:00,
2013-03-15 09:25:00,27.9,21.0,29.88,NNW,338,1.1,5.4,75,0.00,,,0.00,WUHU216HW,2013-03-15 08:25:00,
2013-03-15 09:30:00,28.4,21.8,29.88,North,0,2.5,3.8,76,0.00,,,0.00,WUHU216HW,2013-03-15 08:30:00,
2013-03-15 09:35:00,29.2,22.5,29.88,NW,315,1.1,5.4,76,0.00,,,0.00,WUHU216HW,2013-03-15 08:35:00,
2013-03-15 09:40:00,29.3,21.4,29.88,North,0,1.6,5.4,72,0.00,,,0.00,WUHU216HW,2013-03-15 08:40:00,
2013-03-15 09:45:00,29.3,21.1,29.88,North,0,3.4,6.0,71,0.00,,,0.00,WUHU216HW,2013-03-15 08:45:00,
2013-03-15 09:50:00,29.2,21.2,29.88,NNE,23,4.9,6.0,72,0.00,,,0.00,WUHU216HW,2013-03-15 08:50:00,
2013-03-15 09:55:00,29.2,21.6,29.89,NW,315,3.4,4.9,73,0.00,,,0.00,WUHU216HW,2013-03-15 08:55:00,
2013-03-15 10:00:00,29.7,22.7,29.89,NNW,338,4.0,4.0,75,0.00,,,0.00,WUHU216HW,2013-03-15 09:00:00,
2013-03-15 10:05:00,30.2,22.2,29.89,WNW,293,0.9,4.0,72,0.00,,,0.00,WUHU216HW,2013-03-15 09:05:00,
2013-03-15 10:10:00,30.6,23.0,29.89,ESE,113,1.1,4.0,73,0.00,,,0.00,WUHU216HW,2013-03-15 09:10:00,
2013-03-15 10:15:00,30.8,22.8,29.89,North,0,0.2,3.6,72,0.00,,,0.00,WUHU216HW,2013-03-15 09:15:00,
2013-03-15 10:20:00,30.6,20.2,29.89,North,0,3.1,6.3,65,0.00,,,0.00,WUHU216HW,2013-03-15 09:20:00,
2013-03-15 10:25:00,30.4,21.8,29.89,NNW,338,4.5,6.3,70,0.00,,,0.00,WUHU216HW,2013-03-15 09:25:00,
2013-03-15 10:30:00,30.4,21.8,29.89,NNW,338,4.7,5.6,70,0.00,,,0.00,WUHU216HW,2013-03-15 09:30:00,
2013-03-15 10:35:00,30.2,22.0,29.89,NW,315,1.6,4.7,71,0.00,,,0.00,WUHU216HW,2013-03-15 09:35:00,
2013-03-15 10:40:00,29.9,20.5,29.89,NNE,23,0.9,4.7,68,0.00,,,0.00,WUHU216HW,2013-03-15 09:40:00,
2013-03-15 10:45:00,29.9,21.2,29.89,North,0,5.4,5.4,70,0.00,,,0.00,WUHU216HW,2013-03-15 09:45:00,
2013-03-15 10:50:00,30.4,20.3,29.89,North,0,2.7,5.4,66,0.00,,,0.00,WUHU216HW,2013-03-15 09:50:00,
2013-03-15 10:55:00,30.1,20.0,29.89,NNW,338,3.6,5.4,66,0.00,,,0.00,WUHU216HW,2013-03-15 09:55:00,
2013-03-15 11:00:00,29.9,21.2,29.90,NNW,338,2.5,6.3,70,0.00,,,0.00,WUHU216HW,2013-03-15 10:00:00,
2013-03-15 11:05:00,29.9,22.0,29.90,WSW,248,2.2,6.3,72,0.00,,,0.00,WUHU216HW,2013-03-15 10:05:00,
2013-03-15 11:10:00,30.4,22.4,29.90,NNE,23,3.6,5.6,72,0.00,,,0.00,WUHU216HW,2013-03-15 10:10:00,
2013-03-15 11:15:00,30.6,22.0,29.90,NNW,338,2.0,4.7,70,0.00,,,0.00,WUHU216HW,2013-03-15 10:15:00,
2013-03-15 11:20:00,30.8,21.1,29.90,North,0,2.5,5.6,67,0.00,,,0.00,WUHU216HW,2013-03-15 10:20:00,
2013-03-15 11:25:00,30.6,20.5,29.90,North,0,2.5,5.6,66,0.00,,,0.00,WUHU216HW,2013-03-15 10:25:00,
2013-03-15 11:30:00,30.1,19.3,29.90,NNW,338,3.6,5.4,64,0.00,,,0.00,WUHU216HW,2013-03-15 10:30:00,
2013-03-15 11:35:00,30.2,20.2,29.90,North,0,2.5,6.0,66,0.00,,,0.00,WUHU216HW,2013-03-15 10:35:00,
2013-03-15 11:40:00,31.0,21.2,29.90,NNW,338,2.7,6.0,67,0.00,,,0.00,WUHU216HW,2013-03-15 10:40:00,
2013-03-15 11:45:00,31.5,21.4,29.90,North,0,5.4,5.8,66,0.00,,,0.00,WUHU216HW,2013-03-15 10:45:00,
2013-03-15 11:50:00,32.0,22.3,29.90,NNW,338,5.6,6.0,67,0.00,,,0.00,WUHU216HW,2013-03-15 10:50:00,
2013-03-15 11:55:00,32.9,22.4,29.90,North,0,5.4,6.3,65,0.00,,,0.00,WUHU216HW,2013-03-15 10:55:00,
2013-03-15 12:00:00,32.6,21.0,29.90,NNW,338,4.3,6.7,62,0.00,,,0.00,WUHU216HW,2013-03-15 11:00:00,
2013-03-15 12:05:00,32.6,20.6,29.90,North,0,2.5,7.2,61,0.00,,,0.00,WUHU216HW,2013-03-15 11:05:00,
2013-03-15 12:10:00,32.2,19.5,29.90,North,0,6.3,7.8,59,0.00,,,0.00,WUHU216HW,2013-03-15 11:10:00,
2013-03-15 12:15:00,31.7,19.8,29.90,ENE,68,1.8,7.8,61,0.00,,,0.00,WUHU216HW,2013-03-15 11:15:00,
2013-03-15 12:20:00,31.5,20.3,29.90,North,0,5.6,8.5,63,0.00,,,0.00,WUHU216HW,2013-03-15 11:20:00,
2013-03-15 12:25:00,30.8,20.3,29.90,North,0,6.0,8.5,65,0.00,,,0.00,WUHU216HW,2013-03-15 11:25:00,
2013-03-15 12:30:00,30.8,20.7,29.90,SE,135,0.4,8.3,66,0.00,,,0.00,WUHU216HW,2013-03-15 11:30:00,
2013-03-15 12:35:00,32.0,22.7,29.90,WNW,293,2.2,6.0,68,0.00,,,0.00,WUHU216HW,2013-03-15 11:35:00,
2013-03-15 12:40:00,33.5,23.2,29.90,ENE,68,0.7,4.7,66,0.00,,,0.00,WUHU216HW,2013-03-15 11:40:00,
2013-03-15 12:45:00,33.5,21.8,29.90,NNW,338,2.5,4.3,62,0.00,,,0.00,WUHU216HW,2013-03-15 11:45:00,
2013-03-15 12:50:00,33.5,22.1,29.90,NNW,338,2.5,4.5,63,0.00,,,0.00,WUHU216HW,2013-03-15 11:50:00,
2013-03-15 12:55:00,33.3,22.4,29.90,WNW,293,2.9,4.5,64,0.00,,,0.00,WUHU216HW,2013-03-15 11:55:00,
2013-03-15 13:00:00,33.7,23.8,29.90,WNW,293,6.7,9.2,67,0.00,,,0.00,WUHU216HW,2013-03-15 12:00:00,
2013-03-15 13:05:00,33.7,24.1,29.90,WNW,293,3.6,9.2,68,0.00,,,0.00,WUHU216HW,2013-03-15 12:05:00,
2013-03-15 13:10:00,34.2,25.0,29.90,WNW,293,4.5,7.8,69,0.00,,,0.00,WUHU216HW,2013-03-15 12:10:00,
2013-03-15 13:15:00,34.9,25.4,29.90,NW,315,4.0,6.0,68,0.00,,,0.00,WUHU216HW,2013-03-15 12:15:00,
2013-03-15 13:20:00,35.5,24.8,29.90,West,270,3.1,6.3,65,0.00,,,0.00,WUHU216HW,2013-03-15 12:20:00,
2013-03-15 13:25:00,35.5,24.5,29.90,NNW,338,7.6,7.8,64,0.00,,,0.00,WUHU216HW,2013-03-15 12:25:00,
2013-03-15 13:30:00,34.0,19.4,29.90,North,0,3.4,7.8,55,0.00,,,0.00,WUHU216HW,2013-03-15 12:30:00,
2013-03-15 13:35:00,32.4,18.4,29.90,North,0,0.9,7.6,56,0.00,,,0.00,WUHU216HW,2013-03-15 12:35:00,
2013-03-15 13:40:00,32.4,19.3,29.90,NNW,338,3.4,5.4,58,0.00,,,0.00,WUHU216HW,2013-03-15 12:40:00,
2013-03-15 13:45:00,33.1,21.2,29.90,NNW,338,2.7,6.0,61,0.00,,,0.00,WUHU216HW,2013-03-15 12:45:00,
2013-03-15 13:50:00,33.8,22.1,29.89,WNW,293,3.1,6.0,62,0.00,,,0.00,WUHU216HW,2013-03-15 12:50:00,
2013-03-15 13:56:00,33.3,19.2,29.90,North,0,2.2,5.4,56,0.00,,,0.00,WUHU216HW,2013-03-15 12:56:00,
2013-03-15 14:01:00,32.0,17.2,29.90,NNE,23,3.1,5.4,54,0.00,,,0.00,WUHU216HW,2013-03-15 13:01:00,
2013-03-15 14:06:00,31.7,17.3,29.90,NNE,23,4.3,4.7,55,0.00,,,0.00,WUHU216HW,2013-03-15 13:06:00,
2013-03-15 14:11:00,31.7,18.5,29.90,North,0,2.2,5.4,58,0.00,,,0.00,WUHU216HW,2013-03-15 13:11:00,
2013-03-15 14:16:00,31.7,18.5,29.91,NNE,23,2.2,5.4,58,0.00,,,0.00,WUHU216HW,2013-03-15 13:16:00,
2013-03-15 14:21:00,31.5,20.7,29.90,North,0,1.8,6.3,64,0.00,,,0.00,WUHU216HW,2013-03-15 13:21:00,
2013-03-15 14:26:00,31.3,20.9,29.91,NNE,23,6.3,6.3,65,0.00,,,0.00,WUHU216HW,2013-03-15 13:26:00,
2013-03-15 14:32:00,30.4,20.3,29.91,North,0,5.4,9.4,66,0.00,,,0.00,WUHU216HW,2013-03-15 13:32:00,
2013-03-15 14:37:00,29.9,20.5,29.91,North,0,4.7,9.4,68,0.00,,,0.00,WUHU216HW,2013-03-15 13:37:00,
2013-03-15 14:42:00,29.7,20.8,29.91,North,0,2.0,6.3,69,0.00,,,0.00,WUHU216HW,2013-03-15 13:42:00,
2013-03-15 14:47:00,29.9,19.8,29.92,NNW,338,1.8,5.4,66,0.00,,,0.00,WUHU216HW,2013-03-15 13:47:00,
2013-03-15 14:52:00,29.9,19.8,29.92,NW,315,3.4,5.4,66,0.00,,,0.00,WUHU216HW,2013-03-15 13:52:00,
2013-03-15 14:57:00,30.1,20.7,29.92,North,0,3.4,8.5,68,0.00,,,0.00,WUHU216HW,2013-03-15 13:57:00,
2013-03-15 15:02:00,30.1,21.1,29.91,North,0,1.6,5.8,69,0.00,,,0.00,WUHU216HW,2013-03-15 14:02:00,
2013-03-15 15:07:00,30.8,22.1,29.91,North,0,2.0,3.4,70,0.00,,,0.00,WUHU216HW,2013-03-15 14:07:00,
2013-03-15 15:12:00,31.7,22.3,29.91,NNW,338,0.4,6.9,68,0.00,,,0.00,WUHU216HW,2013-03-15 14:12:00,
2013-03-15 15:17:00,32.2,22.9,29.91,North,0,2.0,6.9,68,0.00,,,0.00,WUHU216HW,2013-03-15 14:17:00,
2013-03-15 15:22:00,32.4,21.6,29.92,NNE,23,6.5,8.1,64,0.00,,,0.00,WUHU216HW,2013-03-15 14:22:00,
2013-03-15 15:27:00,31.9,21.4,29.92,West,270,3.6,8.1,65,0.00,,,0.00,WUHU216HW,2013-03-15 14:27:00,
2013-03-15 15:32:00,31.3,21.2,29.92,NW,315,2.5,7.2,66,0.00,,,0.00,WUHU216HW,2013-03-15 14:32:00,
2013-03-15 15:37:00,31.3,21.2,29.92,NW,315,3.4,8.7,66,0.00,,,0.00,WUHU216HW,2013-03-15 14:37:00,
2013-03-15 15:42:00,31.0,21.6,29.92,WSW,248,2.9,8.7,68,0.00,,,0.00,WUHU216HW,2013-03-15 14:42:00,
2013-03-15 15:47:00,31.0,22.0,29.92,NNW,338,2.0,7.6,69,0.00,,,0.00,WUHU216HW,2013-03-15 14:47:00,
2013-03-15 15:52:00,31.0,22.0,29.92,North,0,1.8,3.6,69,0.00,,,0.00,WUHU216HW,2013-03-15 14:52:00,
2013-03-15 15:57:00,31.1,22.1,29.92,WNW,293,0.9,2.9,69,0.00,,,0.00,WUHU216HW,2013-03-15 14:57:00,
2013-03-15 16:02:00,31.3,22.7,29.92,West,270,1.3,2.9,70,0.00,,,0.00,WUHU216HW,2013-03-15 15:02:00,
2013-03-15 16:08:00,31.7,23.0,29.92,West,270,2.5,3.1,70,0.00,,,0.00,WUHU216HW,2013-03-15 15:08:00,
2013-03-15 16:13:00,31.9,22.9,29.92,NNW,338,1.3,3.1,69,0.00,,,0.00,WUHU216HW,2013-03-15 15:13:00,
2013-03-15 16:18:00,31.9,22.9,29.92,NNW,338,1.1,2.5,69,0.00,,,0.00,WUHU216HW,2013-03-15 15:18:00,
2013-03-15 16:23:00,32.0,22.7,29.92,North,0,1.8,2.0,68,0.00,,,0.00,WUHU216HW,2013-03-15 15:23:00,
2013-03-15 16:28:00,31.9,21.8,29.92,North,0,1.8,5.6,66,0.00,,,0.00,WUHU216HW,2013-03-15 15:28:00,
2013-03-15 16:33:00,31.5,20.7,29.93,NNE,23,6.9,6.9,64,0.00,,,0.00,WUHU216HW,2013-03-15 15:33:00,
2013-03-15 16:38:00,30.6,19.1,29.93,NNE,23,3.4,6.9,62,0.00,,,0.00,WUHU216HW,2013-03-15 15:38:00,
2013-03-15 16:43:00,30.4,20.0,29.93,North,0,4.0,6.3,65,0.00,,,0.00,WUHU216HW,2013-03-15 15:43:00,
2013-03-15 16:48:00,29.9,20.2,29.93,NNE,23,4.3,6.3,67,0.00,,,0.00,WUHU216HW,2013-03-15 15:48:00,
2013-03-15 16:53:00,29.5,20.6,29.93,NNE,23,2.9,5.4,69,0.00,,,0.00,WUHU216HW,2013-03-15 15:53:00,
2013-03-15 16:58:00,29.3,20.4,29.93,North,0,1.1,4.7,69,0.00,,,0.00,WUHU216HW,2013-03-15 15:58:00,
2013-03-15 17:03:00,29.5,20.6,29.94,NW,315,0.4,3.4,69,0.00,,,0.00,WUHU216HW,2013-03-15 16:03:00,
2013-03-15 17:08:00,29.7,20.8,29.94,North,0,0.0,3.4,69,0.00,,,0.00,WUHU216HW,2013-03-15 16:08:00,
2013-03-15 17:13:00,29.9,20.9,29.94,North,0,1.8,2.2,69,0.00,,,0.00,WUHU216HW,2013-03-15 16:13:00,
2013-03-15 17:18:00,29.9,20.5,29.94,North,0,0.4,2.2,68,0.00,,,0.00,WUHU216HW,2013-03-15 16:18:00,
2013-03-15 17:23:00,29.7,20.4,29.94,WNW,293,0.4,2.7,68,0.00,,,0.00,WUHU216HW,2013-03-15 16:23:00,
2013-03-15 17:28:00,29.7,20.8,29.94,North,0,1.6,2.7,69,0.00,,,0.00,WUHU216HW,2013-03-15 16:28:00,
2013-03-15 17:33:00,29.7,20.8,29.94,North,0,1.8,1.8,69,0.00,,,0.00,WUHU216HW,2013-03-15 16:33:00,
2013-03-15 17:38:00,29.7,20.8,29.94,NW,315,0.4,1.8,69,0.00,,,0.00,WUHU216HW,2013-03-15 16:38:00,
2013-03-15 17:43:00,29.5,20.6,29.94,NE,45,0.9,1.8,69,0.00,,,0.00,WUHU216HW,2013-03-15 16:43:00,
2013-03-15 17:48:00,29.3,20.4,29.95,North,0,1.8,1.8,69,0.00,,,0.00,WUHU216HW,2013-03-15 16:48:00,
2013-03-15 17:53:00,29.2,20.3,29.95,North,0,1.1,1.8,69,0.00,,,0.00,WUHU216HW,2013-03-15 16:53:00,
2013-03-15 17:58:00,29.0,20.4,29.95,North,0,0.4,1.8,70,0.00,,,0.00,WUHU216HW,2013-03-15 16:58:00,
2013-03-15 18:03:00,28.8,20.4,29.95,NNE,23,6.0,6.0,70,0.00,,,0.00,WUHU216HW,2013-03-15 17:03:00,
2013-03-15 18:08:00,28.6,20.2,29.95,NNW,338,0.2,6.0,70,0.00,,,0.00,WUHU216HW,2013-03-15 17:08:00,
2013-03-15 18:13:00,28.4,20.0,29.96,North,0,0.4,6.0,70,0.00,,,0.00,WUHU216HW,2013-03-15 17:13:00,
2013-03-15 18:18:00,28.4,20.0,29.96,NNW,338,0.7,1.6,70,0.00,,,0.00,WUHU216HW,2013-03-15 17:18:00,
2013-03-15 18:23:00,28.4,20.0,29.96,North,0,0.2,1.6,70,0.00,,,0.00,WUHU216HW,2013-03-15 17:23:00,
2013-03-15 18:28:00,28.4,20.3,29.96,North,0,0.4,1.1,71,0.00,,,0.00,WUHU216HW,2013-03-15 17:28:00,
2013-03-15 18:33:00,28.4,20.3,29.97,North,0,1.1,1.6,71,0.00,,,0.00,WUHU216HW,2013-03-15 17:33:00,
2013-03-15 18:38:00,28.4,20.6,29.97,WSW,248,1.1,3.8,72,0.00,,,0.00,WUHU216HW,2013-03-15 17:38:00,
2013-03-15 18:43:00,28.4,20.9,29.97,North,0,2.9,3.8,73,0.00,,,0.00,WUHU216HW,2013-03-15 17:43:00,
2013-03-15 18:48:00,28.4,20.9,29.98,WSW,248,1.1,2.9,73,0.00,,,0.00,WUHU216HW,2013-03-15 17:48:00,
2013-03-15 18:53:00,28.4,20.9,29.97,WSW,248,1.1,2.5,73,0.00,,,0.00,WUHU216HW,2013-03-15 17:53:00,
2013-03-15 18:58:00,28.4,21.3,29.98,SSW,203,2.2,2.2,74,0.00,,,0.00,WUHU216HW,2013-03-15 17:58:00,
2013-03-15 19:03:00,28.1,20.9,29.98,SW,225,1.8,2.2,74,0.00,,,0.00,WUHU216HW,2013-03-15 18:03:00,
2013-03-15 19:08:00,28.1,20.9,29.98,SW,225,1.1,1.8,74,0.00,,,0.00,WUHU216HW,2013-03-15 18:08:00,
2013-03-15 19:13:00,27.9,20.7,29.98,SSW,203,0.4,1.8,74,0.00,,,0.00,WUHU216HW,2013-03-15 18:13:00,
2013-03-15 19:18:00,27.9,20.7,29.99,SW,225,0.7,1.1,74,0.00,,,0.00,WUHU216HW,2013-03-15 18:18:00,
2013-03-15 19:23:00,27.7,20.5,29.99,SSW,203,1.1,1.1,74,0.00,,,0.00,WUHU216HW,2013-03-15 18:23:00,
2013-03-15 19:28:00,27.7,20.5,29.99,SW,225,1.1,1.3,74,0.00,,,0.00,WUHU216HW,2013-03-15 18:28:00,
2013-03-15 19:33:00,27.4,19.8,29.99,SSW,203,1.1,1.3,73,0.00,,,0.00,WUHU216HW,2013-03-15 18:33:00,
2013-03-15 19:38:00,27.2,19.6,29.99,SSW,203,0.7,1.1,73,0.00,,,0.00,WUHU216HW,2013-03-15 18:38:00,
2013-03-15 19:43:00,27.0,19.8,29.99,SW,225,0.4,1.1,74,0.00,,,0.00,WUHU216HW,2013-03-15 18:43:00,
2013-03-15 19:48:00,26.6,19.5,29.99,SSW,203,0.0,0.7,74,0.00,,,0.00,WUHU216HW,2013-03-15 18:48:00,
2013-03-15 19:53:00,26.5,19.5,30.00,SSE,158,0.9,1.1,75,0.00,,,0.00,WUHU216HW,2013-03-15 18:53:00,
2013-03-15 19:58:00,26.3,19.4,30.00,SSE,158,1.1,1.1,75,0.00,,,0.00,WUHU216HW,2013-03-15 18:58:00,
2013-03-15 20:03:00,26.3,19.4,30.00,SSE,158,0.9,1.1,75,0.00,,,0.00,WUHU216HW,2013-03-15 19:03:00,
2013-03-15 20:08:00,26.1,19.2,30.00,SSW,203,0.9,1.1,75,0.00,,,0.00,WUHU216HW,2013-03-15 19:08:00,
2013-03-15 20:13:00,26.1,19.2,30.00,South,180,0.4,1.1,75,0.00,,,0.00,WUHU216HW,2013-03-15 19:13:00,
2013-03-15 20:18:00,25.9,19.0,30.00,South,180,0.4,0.9,75,0.00,,,0.00,WUHU216HW,2013-03-15 19:18:00,
2013-03-15 20:23:00,25.6,19.0,30.00,SE,135,0.2,0.9,76,0.00,,,0.00,WUHU216HW,2013-03-15 19:23:00,
2013-03-15 20:28:00,24.8,18.6,30.00,SE,135,0.9,1.1,77,0.00,,,0.00,WUHU216HW,2013-03-15 19:28:00,
2013-03-15 20:33:00,24.7,18.5,30.00,SE,135,0.9,1.1,77,0.00,,,0.00,WUHU216HW,2013-03-15 19:33:00,
2013-03-15 20:38:00,24.5,18.3,30.01,SE,135,1.1,1.1,77,0.00,,,0.00,WUHU216HW,2013-03-15 19:38:00,
2013-03-15 20:43:00,24.3,18.5,30.01,SSE,158,0.9,1.1,78,0.00,,,0.00,WUHU216HW,2013-03-15 19:43:00,
2013-03-15 20:48:00,24.1,18.3,30.01,SSE,158,0.9,1.1,78,0.00,,,0.00,WUHU216HW,2013-03-15 19:48:00,
2013-03-15 20:53:00,24.1,18.3,30.01,SSE,158,1.1,1.1,78,0.00,,,0.00,WUHU216HW,2013-03-15 19:53:00,
2013-03-15 20:58:00,24.1,18.3,30.01,SE,135,1.1,1.3,78,0.00,,,0.00,WUHU216HW,2013-03-15 19:58:00,
2013-03-15 21:03:00,23.9,18.4,30.01,SE,135,1.1,1.3,79,0.00,,,0.00,WUHU216HW,2013-03-15 20:03:00,
2013-03-15 21:08:00,23.8,17.9,30.01,SE,135,0.7,1.1,78,0.00,,,0.00,WUHU216HW,2013-03-15 20:08:00,
2013-03-15 21:13:00,23.8,17.9,30.01,SSE,158,0.4,1.1,78,0.00,,,0.00,WUHU216HW,2013-03-15 20:13:00,
2013-03-15 21:18:00,23.6,17.7,30.01,SE,135,1.1,1.1,78,0.00,,,0.00,WUHU216HW,2013-03-15 20:18:00,
2013-03-15 21:23:00,23.4,17.6,30.01,SSE,158,0.7,1.1,78,0.00,,,0.00,WUHU216HW,2013-03-15 20:23:00,
2013-03-15 21:28:00,23.4,17.6,30.01,SE,135,0.7,1.1,78,0.00,,,0.00,WUHU216HW,2013-03-15 20:28:00,
2013-03-15 21:33:00,23.4,17.6,30.01,SE,135,0.9,0.9,78,0.00,,,0.00,WUHU216HW,2013-03-15 20:33:00,
2013-03-15 21:38:00,23.4,17.6,30.01,SSE,158,1.3,1.3,78,0.00,,,0.00,WUHU216HW,2013-03-15 20:38:00,
2013-03-15 21:43:00,23.2,17.4,30.01,SSE,158,0.7,1.3,78,0.00,,,0.00,WUHU216HW,2013-03-15 20:43:00,
2013-03-15 21:48:00,23.2,17.4,30.01,SSE,158,0.7,1.3,78,0.00,,,0.00,WUHU216HW,2013-03-15 20:48:00,
2013-03-15 21:53:00,23.2,17.4,30.01,SW,225,0.0,1.1,78,0.00,,,0.00,WUHU216HW,2013-03-15 20:53:00,
2013-03-15 21:58:00,22.7,17.2,30.01,SW,225,0.0,1.1,79,0.00,,,0.00,WUHU216HW,2013-03-15 20:58:00,
2013-03-15 22:03:00,22.7,17.2,30.02,SSE,158,0.4,0.4,79,0.00,,,0.00,WUHU216HW,2013-03-15 21:03:00,
2013-03-15 22:08:00,22.5,17.0,30.01,SSW,203,1.1,1.1,79,0.00,,,0.00,WUHU216HW,2013-03-15 21:08:00,
2013-03-15 22:13:00,22.3,16.8,30.01,SW,225,1.1,1.3,79,0.00,,,0.00,WUHU216HW,2013-03-15 21:13:00,
2013-03-15 22:19:00,22.5,17.3,30.01,SW,225,1.3,1.3,80,0.00,,,0.00,WUHU216HW,2013-03-15 21:19:00,
2013-03-15 22:24:00,22.5,17.3,30.02,SSW,203,1.8,1.8,80,0.00,,,0.00,WUHU216HW,2013-03-15 21:24:00,
2013-03-15 22:29:00,22.5,17.3,30.01,SSE,158,0.7,1.8,80,0.00,,,0.00,WUHU216HW,2013-03-15 21:29:00,
2013-03-15 22:34:00,22.3,17.1,30.02,SE,135,1.6,1.8,80,0.00,,,0.00,WUHU216HW,2013-03-15 21:34:00,
2013-03-15 22:39:00,22.1,16.9,30.02,SSE,158,1.1,1.6,80,0.00,,,0.00,WUHU216HW,2013-03-15 21:39:00,
2013-03-15 22:44:00,22.1,16.9,30.02,SSE,158,0.4,1.6,80,0.00,,,0.00,WUHU216HW,2013-03-15 21:44:00,
2013-03-15 22:49:00,22.0,16.7,30.02,SSE,158,0.0,1.1,80,0.00,,,0.00,WUHU216HW,2013-03-15 21:49:00,
2013-03-15 22:54:00,21.8,16.6,30.02,SE,135,0.4,0.7,80,0.00,,,0.00,WUHU216HW,2013-03-15 21:54:00,
2013-03-15 22:59:00,21.8,16.6,30.02,SSE,158,0.4,0.7,80,0.00,,,0.00,WUHU216HW,2013-03-15 21:59:00,
2013-03-15 23:04:00,21.6,16.7,30.02,SE,135,0.7,0.9,81,0.00,,,0.00,WUHU216HW,2013-03-15 22:04:00,
2013-03-15 23:09:00,21.2,16.6,30.02,SSE,158,1.1,1.1,82,0.00,,,0.00,WUHU216HW,2013-03-15 22:09:00,
2013-03-15 23:14:00,20.9,16.5,30.02,SE,135,0.7,1.3,83,0.00,,,0.00,WUHU216HW,2013-03-15 22:14:00,
2013-03-15 23:19:00,20.9,16.2,30.02,SE,135,1.3,1.3,82,0.00,,,0.00,WUHU216HW,2013-03-15 22:19:00,
2013-03-15 23:24:00,21.1,16.4,30.02,SSE,158,1.8,1.8,82,0.00,,,0.00,WUHU216HW,2013-03-15 22:24:00,
2013-03-15 23:29:00,21.2,16.6,30.02,SSW,203,1.1,1.8,82,0.00,,,0.00,WUHU216HW,2013-03-15 22:29:00,
2013-03-15 23:34:00,21.1,16.4,30.02,ESE,113,0.7,1.8,82,0.00,,,0.00,WUHU216HW,2013-03-15 22:34:00,
2013-03-15 23:39:00,20.7,16.0,30.02,ESE,113,0.0,1.1,82,0.00,,,0.00,WUHU216HW,2013-03-15 22:39:00,
2013-03-15 23:44:00,20.5,15.8,30.02,SE,135,0.4,0.7,82,0.00,,,0.00,WUHU216HW,2013-03-15 22:44:00,
2013-03-15 23:49:00,20.5,15.8,30.02,SE,135,0.0,0.4,82,0.00,,,0.00,WUHU216HW,2013-03-15 22:49:00,
2013-03-15 23:54:00,20.5,15.8,30.02,SE,135,0.4,0.4,82,0.00,,,0.00,WUHU216HW,2013-03-15 22:54:00,
2013-03-15 23:59:00,20.5,15.8,30.02,SE,135,0.2,0.4,82,0.00,,,0.00,WUHU216HW,2013-03-15 22:59:00,